Погода в Эль-Гайда

Йемен     16°12′36″N   52°10′57″E
темп.,
°C
ветер,
м/с
пор.,
м/с
влажн.,
%
обл.,
%
осадки,
мм/ч
давл.,
гПа
погр.,
м
22 мая, вс
вс2200:00+27всв349069 0.0 1005129
03:00+26ссв568916 0.0 1005224
06:00+26сз22865 0.0 1005102
09:00+32ююв214959 0.0 1005526
12:00+31ююв76666 0.0 1004398
15:00+31ююв876514 0.0 1001407
18:00+28юв688326 0.0 1002187
21:00+27в348889 0.0 1004119
23 мая, пн
пн2300:00+27св459299 0.0 1003153
03:00+25с23915 0.0 100293
06:00+26з237816 0.0 1004100
09:00+32ююв334698 0.0 1004528
12:00+31ююв7565100 0.0 1002396
15:00+31юв886954 0.0 1000376
18:00+28вюв78855 0.0 1001317
21:00+27вюв6888100 0.0 1003301
24 мая, вт
вт2400:00+27в459184 0.0 1003198
03:00+27всв238890 0.1 1003161
06:00+27с23795 0.0 1005149
09:00+31всв025870 0.0 1005617
12:00+31ююв756797 0.0 1003370
15:00+30юв99725 0.0 1001445
18:00+28вюв810851 0.0 1003515
21:00+28вюв68877 0.0 1006398
25 мая, ср
ср2500:00+27вюв458942 0.1 1005206
03:00+28вюв337795 0.1 1005511
06:00+28в227998 0.1 1007293
09:00+29вюв327350 0.2 1008616
12:00+31юв54630 0.0 1007659
15:00+30юв67695 0.0 1005716
18:00+29вюв68790 0.0 1006441
21:00+29юв467935 0.0 1008183
26 мая, чт
чт2600:00+28юв34825 0.0 100795
03:00+27юв12865 0.0 100797
06:00+27ссв118210 0.0 1009140
09:00+30юв32680 0.0 1009694
12:00+31юв55610 0.0 1007613
15:00+30юв55660 0.0 1006617
18:00+28юв57780 0.0 1006346
21:00+27в458535 0.0 1007183